Plymouth, NH

2:36 PM EDT on September 26, 2017 (GMT -0400)
Plymouth

Weather History for K1P1 - May, 2012

Change the Weather History Date:

Thursday, May 17, 2012

  Actual Average (KLCI) Record (KLCI)
Temperature  
Mean Temperature 52 °F -  
Max Temperature 63 °F 67 °F 89 °F (2017)
Min Temperature 41 °F 45 °F 30 °F (2003)
Degree Days  
Heating Degree Days 13    
Growing Degree Days 2 (Base 50)    
Moisture  
Dew Point 39 °F    
Average Humidity 60    
Maximum Humidity 98    
Minimum Humidity 28    
Precipitation  
Precipitation 0.02 in - - ()
Sea Level Pressure  
Sea Level Pressure 30.02 in    
Wind  
Wind Speed 6 mph (WNW)    
Max Wind Speed 18 mph    
Max Gust Speed 25 mph    
Visibility 10 miles    
Events Rain    
Averages and records for this station are not official NWS values.
T = Trace of Precipitation, MM = Missing Value Source: NWS Daily Summary

Daily Weather History Graph

Daily Weather History Graph

Search for Another Location

Airport or City:

Trip Planner

Search our weather history database for the weather conditions in past years. The results will help you decide how hot, cold, wet, or windy it might be!

Date:

Astronomy

May. 17, 2012 Rise Set
Actual Time 5:19 AM EDT 8:08 PM EDT
Civil Twilight 4:45 AM EDT 8:42 PM EDT
Nautical Twilight 4:03 AM EDT 9:24 PM EDT
Astronomical Twilight 3:13 AM EDT 10:14 PM EDT
Moon 3:21 AM EDT (5/17) 5:13 PM EDT (5/17)
Length of Visible Light 15h 56m
Length of Day
14h 49m
Waning Crescent, 10% of the Moon is Illuminated
May 17
Waning Crescent
May 20
New
May 28
First Quarter
Jun 4
Full
Jun 11
Last Quarter

Hourly Weather History & Observations

Time (EDT) Temp. Windchill Dew Point Humidity Pressure Visibility Wind Dir Wind Speed Gust Speed Precip Events Conditions
12:15 AM 59.9 °F - 59.2 °F 97% 29.84 in 5.0 mi Calm Calm - 0.01 in Rain Light Rain
12:35 AM 59.5 °F - 59.0 °F 98% 29.85 in 7.0 mi Calm Calm - 0.01 in   Overcast
12:55 AM 59.4 °F - 58.6 °F 97% 29.86 in 7.0 mi Calm Calm - 0.01 in   Overcast
1:15 AM 59.5 °F - 59.0 °F 98% 29.86 in 7.0 mi WNW 3.5 mph - N/A   Overcast
1:35 AM 60.3 °F - 57.9 °F 92% 29.85 in 10.0 mi NW 6.9 mph - N/A   Overcast
1:55 AM 60.3 °F - 57.6 °F 91% 29.86 in 10.0 mi West 6.9 mph - N/A   Overcast
2:15 AM 60.8 °F - 54.1 °F 79% 29.87 in 10.0 mi West 10.4 mph 17.3 mph 0.01 in   Scattered Clouds
2:35 AM 59.0 °F - 49.3 °F 70% 29.88 in 10.0 mi West 15.0 mph 24.2 mph 0.01 in   Scattered Clouds
2:55 AM 56.7 °F - 46.6 °F 69% 29.88 in 10.0 mi West 9.2 mph 23.0 mph 0.01 in   Clear
3:35 AM 53.4 °F - 45.7 °F 75% 29.90 in 10.0 mi WNW 9.2 mph - N/A   Scattered Clouds
3:55 AM 52.7 °F - 45.5 °F 76% 29.90 in 10.0 mi WNW 3.5 mph - N/A   Mostly Cloudy
4:15 AM 52.3 °F - 44.8 °F 75% 29.90 in 10.0 mi West 3.5 mph - N/A   Scattered Clouds
4:35 AM 51.4 °F - 43.7 °F 75% 29.91 in 10.0 mi Calm Calm - N/A   Clear
4:55 AM 51.3 °F - 43.0 °F 73% 29.91 in 10.0 mi NW 4.6 mph - N/A   Clear
5:15 AM 50.4 °F - 43.0 °F 76% 29.92 in 10.0 mi WNW 5.8 mph - N/A   Clear
5:35 AM 49.8 °F - 42.3 °F 75% 29.94 in 10.0 mi WNW 4.6 mph - N/A   Clear
5:55 AM 49.3 °F - 41.7 °F 75% 29.94 in 10.0 mi West 4.6 mph - N/A   Clear
6:15 AM 49.5 °F - 40.8 °F 72% 29.96 in 10.0 mi WNW 4.6 mph - N/A   Clear
6:35 AM 49.5 °F - 41.0 °F 73% 29.97 in 10.0 mi NW 5.8 mph - N/A   Clear
6:55 AM 50.0 °F - 41.5 °F 73% 29.98 in 10.0 mi WNW 6.9 mph - N/A   Scattered Clouds
7:15 AM 50.4 °F - 40.3 °F 68% 29.98 in 10.0 mi WNW 8.1 mph - N/A   Scattered Clouds
7:35 AM 50.5 °F - 40.1 °F 67% 29.99 in 10.0 mi NW 6.9 mph - N/A   Scattered Clouds
7:55 AM 51.1 °F - 39.4 °F 64% 29.99 in 10.0 mi NW 10.4 mph 18.4 mph N/A   Clear
8:15 AM 51.4 °F - 40.1 °F 65% 29.99 in 10.0 mi NW 10.4 mph 17.3 mph N/A   Clear
8:35 AM 51.8 °F - 37.8 °F 59% 30.00 in 10.0 mi West 13.8 mph 25.3 mph N/A   Clear
8:55 AM 52.3 °F - 37.9 °F 58% 30.01 in 10.0 mi WNW 12.7 mph - N/A   Clear
9:15 AM 52.7 °F - 36.9 °F 55% 30.02 in 10.0 mi NW 13.8 mph 23.0 mph N/A   Clear
9:35 AM 53.2 °F - 37.2 °F 55% 30.03 in 10.0 mi NW 11.5 mph 23.0 mph N/A   Clear
9:55 AM 54.1 °F - 36.7 °F 52% 30.04 in 10.0 mi WNW 15.0 mph 20.7 mph N/A   Clear
10:15 AM 54.1 °F - 33.6 °F 46% 30.05 in 10.0 mi NW 18.4 mph 25.3 mph N/A   Clear
10:35 AM 55.4 °F - 34.2 °F 45% 30.05 in 10.0 mi WNW 15.0 mph 24.2 mph N/A   Clear
10:55 AM 55.8 °F - 34.2 °F 44% 30.06 in 10.0 mi NW 13.8 mph 23.0 mph N/A   Clear
11:15 AM 56.3 °F - 34.2 °F 43% 30.06 in 10.0 mi NW 15.0 mph 20.7 mph N/A   Clear
11:35 AM 56.7 °F - 32.9 °F 41% 30.06 in 10.0 mi NNW 9.2 mph 19.6 mph N/A   Scattered Clouds
12:15 PM 58.1 °F - 32.9 °F 39% 30.06 in 10.0 mi NNW 10.4 mph 18.4 mph N/A   Clear
12:35 PM 58.6 °F - 34.9 °F 41% 30.06 in 10.0 mi NW 9.2 mph 19.6 mph N/A   Clear
12:55 PM 59.0 °F - 33.8 °F 39% 30.06 in 10.0 mi NNW 8.1 mph - N/A   Clear
1:15 PM 59.2 °F - 33.4 °F 38% 30.06 in 10.0 mi NW 6.9 mph 19.6 mph N/A   Scattered Clouds
1:35 PM 61.0 °F - 35.6 °F 39% 30.06 in 10.0 mi NW 9.2 mph 16.1 mph N/A   Scattered Clouds
1:55 PM 60.8 °F - 34.2 °F 37% 30.06 in 10.0 mi West 10.4 mph 16.1 mph N/A   Mostly Cloudy
2:15 PM 61.5 °F - 33.6 °F 35% 30.06 in 10.0 mi NW 8.1 mph - N/A   Mostly Cloudy
2:35 PM 61.2 °F - 33.1 °F 35% 30.06 in 10.0 mi North 8.1 mph - N/A   Mostly Cloudy
2:55 PM 62.1 °F - 32.5 °F 33% 30.05 in 10.0 mi WNW 9.2 mph - N/A   Mostly Cloudy
3:15 PM 62.1 °F - 32.7 °F 33% 30.05 in 10.0 mi WSW 15.0 mph 19.6 mph N/A   Mostly Cloudy
3:35 PM 62.2 °F - 30.6 °F 30% 30.06 in 10.0 mi West 8.1 mph 23.0 mph N/A   Scattered Clouds
3:55 PM 63.0 °F - 29.7 °F 29% 30.05 in 10.0 mi WSW 11.5 mph 18.4 mph N/A   Clear
4:15 PM 63.3 °F - 29.1 °F 28% 30.05 in 10.0 mi West 10.4 mph 17.3 mph N/A   Clear
4:35 PM 63.3 °F - 29.3 °F 28% 30.06 in 10.0 mi WNW 12.7 mph 19.6 mph N/A   Clear
4:55 PM 63.5 °F - 30.0 °F 28% 30.05 in 10.0 mi WNW 6.9 mph 17.3 mph N/A   Clear
5:15 PM 63.9 °F - 31.3 °F 29% 30.05 in 10.0 mi WNW 9.2 mph 16.1 mph N/A   Clear
5:35 PM 63.5 °F - 29.3 °F 28% 30.06 in 10.0 mi WNW 10.4 mph 18.4 mph N/A   Clear
5:55 PM 63.5 °F - 30.4 °F 29% 30.06 in 10.0 mi NW 10.4 mph - N/A   Clear
6:15 PM 63.1 °F - 30.6 °F 29% 30.07 in 10.0 mi WNW 6.9 mph - N/A   Clear
6:35 PM 63.0 °F - 29.3 °F 28% 30.07 in 10.0 mi WNW 12.7 mph 16.1 mph N/A   Clear
6:55 PM 62.6 °F - 29.8 °F 29% 30.07 in 10.0 mi WNW 8.1 mph - N/A   Clear
7:15 PM 61.9 °F - 30.7 °F 31% 30.08 in 10.0 mi WNW 6.9 mph - N/A   Clear
7:55 PM 60.1 °F - 30.9 °F 33% 30.09 in 10.0 mi West 3.5 mph - N/A   Clear
8:35 PM 52.5 °F - 39.9 °F 62% 30.11 in 10.0 mi Calm Calm - N/A   Clear
8:55 PM 50.2 °F - 40.6 °F 70% 30.12 in 10.0 mi Calm Calm - N/A   Clear
9:15 PM 48.2 °F - 42.1 °F 79% 30.13 in 10.0 mi Calm Calm - N/A   Clear
9:35 PM 47.3 °F - 42.8 °F 84% 30.14 in 10.0 mi Calm Calm - N/A   Clear
9:55 PM 45.5 °F - 42.3 °F 88% 30.15 in 10.0 mi Calm Calm - N/A   Clear
10:15 PM 44.8 °F - 42.8 °F 93% 30.15 in 10.0 mi Calm Calm - N/A   Clear
10:35 PM 44.2 °F - 42.8 °F 95% 30.15 in 10.0 mi Calm Calm - N/A   Clear
10:55 PM 43.5 °F 40.1 °F 41.4 °F 92% 30.15 in 10.0 mi WNW 5.8 mph - N/A   Clear
11:15 PM 43.0 °F - 40.3 °F 90% 30.16 in 10.0 mi Calm Calm - N/A   Clear
11:35 PM 41.9 °F - 40.6 °F 95% 30.17 in 10.0 mi Calm Calm - N/A   Clear
11:55 PM 41.5 °F - 40.5 °F 96% 30.16 in 10.0 mi Calm Calm - N/A   Clear